User: anonymous   Login
Location: Brainerd
(46.3580°N, 94.2010°W)
Time: 14:08:17
(UTC-05:00)
Language:

CZ-4C R/B - Orbit

View from above orbital plane
View from above orbital plane
View from above satellite
View from above satellite

Ground track
Ground track

The orbit data is extracted from the following two-line orbital elements,

1 32290U 07055B   15239.84937801  .00004277  00000-0  14158-3 0  9995
2 32290 097.5409 324.0301 0075297 316.0062 138.6668 15.29168891430851
Epoch (UTC): 27 August 2015 20:23:06
Eccentricity: 0.0075297
inclination: 97.5409°
perigee height: 426 km
apogee height: 530 km
right ascension of ascending node: 324.0301°
argument of perigee: 316.0062°
revolutions per day: 15.29168891
mean anomaly at epoch: 138.6668°
orbit number at epoch: 43085

The dashed part of the orbit path shows where the satellite is in the earth's shadow,  

DLR